Flag for Austria Weather past 2 weeks in Stockerau, Lower Austria, Austria

Now
57 °F

Light rain. Fog.


Feels Like: 57 °F
Forecast: 54 / 67 °F
Wind: 1 mph from North

Location: Tulln Airport

Current Time: Oct 1, 2014 at 6:21:16 AM

Latest Report: Oct 1, 2014 at 5:50 AM


Visibility: 2 mi

Pressure: 30.27 "Hg

Humidity: 100%

Dew point: 57 °F

Location of StockerauLocation

Historic Weather in Stockerau — Graph

°F

Stockerau temperature yesterday

Maximum temperature yesterday: 66 °F (at 2:50 PM)
Minimum temperature yesterday: 52 °F (at 5:50 AM)
Average temperature yesterday: 58 °F

Past Weeks' High & Low Weather Summary

 TemperatureHumidityPressure
High79 °F (Sep 20, 1:50 PM)100% (Sep 15, 10:50 PM)30.42 "Hg (Sep 15, 10:50 PM)
Low37 °F (Sep 24, 5:50 AM)50% (Sep 17, 3:50 PM)29.83 "Hg (Sep 21, 5:50 PM)
Average60 °F80%30.10 "Hg
* Reported Sep 15 10:50 PM — Sep 30 10:50 PM, Stockerau, Weather by CustomWeather, © 2014

Note: Actual official high and low records may vary slightly from our data, if they occured in-between our weather recording intervals... More about our weather records

Advertising

Stockerau weather history for previous 24 hours

 ConditionsComfort  
Time TempWeatherWind HumidityBarometerVisibility
10:50 PM
Sep 30
57 °FPassing clouds.No wind94%30.27 "Hg5 mi
9:50 PM57 °FPartly cloudy.1 mph100%30.27 "Hg5 mi
8:50 PM57 °FPassing clouds.2 mph100%30.27 "Hg6 mi
7:50 PM59 °FPassing clouds.2 mph94%30.27 "Hg7 mi
6:50 PM61 °FPartly sunny.3 mph88%30.27 "Hg9 mi
5:50 PM63 °FPartly sunny.6 mph83%30.27 "Hg11 mi
4:50 PM66 °FPartly sunny.7 mph78%30.27 "Hg9 mi
3:50 PM66 °FScattered clouds.3 mph73%30.27 "Hg9 mi
2:50 PM66 °FPassing clouds.3 mph78%30.27 "Hg7 mi
1:50 PM63 °FPartly sunny.2 mph83%30.30 "Hg6 mi
12:50 PM57 °FMore clouds than sun.2 mph100%30.30 "Hg4 mi
11:50 AM57 °FFog.2 mph94%30.30 "Hg2 mi
10:50 AM57 °FDrizzle. Fog.2 mph94%30.30 "Hg2 mi
9:50 AM55 °FDrizzle. Fog.1 mph94%30.30 "Hg1 mi
8:50 AM54 °FDrizzle. Fog.1 mph100%30.30 "Hg1 mi
7:50 AM54 °FMixture of precip. Fog.2 mph94%30.30 "Hg1 mi
6:50 AM52 °FDrizzle. Fog.2 mph100%30.30 "Hg1 mi
Weather by CustomWeather, © 2014

See weather overviewHow to use our weather pages